Zurück zum Katalog

COSMOS 1697

AktivNavigationLEO
NORAD 16181·PAYLOAD·🇷🇺 Russia

Gestartet Oct 22, 1985 von Baikonur Cosmodrome

Loading…

Nächste Überflüge (nächste 24 Stunden)

TLE

AktuellSource: Space-Track

Epoche: Sep 14, 2026, 04:44 UTC

1 16181U 85097A   26257.19769739  .00000316  00000-0  19211-3 0  9996
2 16181  70.9627 185.0407 0019032 243.0847 116.8330 14.13669045976258

Verfolge COSMOS 1697 in Echtzeit mit AllMySat

Download on the App Store